Home   Weather   Flint   Past weeks

Flag for USA Past Weather in Flint, Michigan, USA — Yesterday and Last 2 Weeks

Now
63 °F

Clear.


Feels Like: 63 °F
Forecast: 52 / 64 °F
Wind: 10 mph from Southeast

Location: Bishop International Airport

Current Time: Sep 25, 2016 at 8:21:08 PM

Latest Report: Sep 25, 2016 at 7:53 PM


Visibility: 10 mi

Pressure: 30.03 "Hg

Humidity: 60%

Dew Point: 49 °F

Location of FlintLocation

Past Weather in Flint — Graph

°F

Flint Temperature Yesterday

Maximum temperature yesterday: 68 °F (at 3:53 PM)
Minimum temperature yesterday: 51 °F (at 11:53 PM)
Average temperature yesterday: 59 °F

High & Low Weather Summary for the Past Weeks

 TemperatureHumidityPressure
High82 °F (Sep 19, 2:53 PM)100% (Sep 15, 1:53 AM)30.33 "Hg (Sep 15, 1:53 AM)
Low45 °F (Sep 25, 5:53 AM)31% (Sep 20, 5:53 PM)29.82 "Hg (Sep 10, 6:53 PM)
Average65 °F76%30.11 "Hg
* Reported Sep 10 6:53 PM — Sep 25 6:53 PM, Flint, Weather by CustomWeather, © 2016

Note: Actual official high and low records may vary slightly from our data, if they occured in-between our weather recording intervals... More about our weather records

Advertising

Flint Weather History for the Previous 24 Hours

Scroll right to see more
 ConditionsComfort  
Time TempWeatherWind HumidityBarometerVisibility
6:53 PM
Sun, Sep 25
66 °FPassing clouds.12 mph59%30.06 "Hg10 mi
5:53 PM70 °FPassing clouds.15 mph51%30.05 "Hg10 mi
4:53 PM71 °FPassing clouds.13 mph51%30.07 "Hg10 mi
3:53 PM71 °FPartly sunny.14 mph51%30.10 "Hg10 mi
2:53 PM72 °FSunny.10 mph53%30.12 "Hg10 mi
1:53 PM70 °FSunny.12 mph55%30.16 "Hg10 mi
12:53 PM69 °FSunny.10 mph59%30.17 "Hg10 mi
11:53 AM67 °FSunny.10 mph63%30.20 "Hg10 mi
10:53 AM65 °FSunny.14 mph68%30.20 "Hg10 mi
9:53 AM59 °FSunny.3 mph75%30.21 "Hg10 mi
8:53 AM52 °FSunny.3 mph86%30.22 "Hg10 mi
7:53 AM47 °FSunny.3 mph90%30.22 "Hg10 mi
6:53 AM45 °FClear.5 mph97%30.21 "Hg10 mi
5:53 AM45 °FClear.No wind97%30.22 "Hg10 mi
4:53 AM47 °FClear.3 mph93%30.22 "Hg10 mi
3:53 AM48 °FClear.3 mph89%30.22 "Hg10 mi
2:53 AM49 °FClear.3 mph90%30.23 "Hg10 mi
1:53 AM50 °FClear.No wind86%30.24 "Hg10 mi
12:53 AM51 °FClear.3 mph83%30.24 "Hg10 mi
11:53 PM
Sat, Sep 24
51 °FClear.6 mph83%30.25 "Hg10 mi
10:53 PM53 °FClear.6 mph77%30.24 "Hg10 mi
9:53 PM55 °FClear.7 mph72%30.24 "Hg10 mi
8:53 PM58 °FClear.12 mph67%30.22 "Hg10 mi
Weather by CustomWeather, © 2016

See weather overviewHow to use our weather pages